DK9XR-14 Weather Reports


time (UTC)temp
C
wind
direction
speed
KPH
gust
KPH
rain 1hr
cm
rain 24hr
cm
rain mn
cm
humidity
%
barometer
mb
20260503234246 12 168 0.0 1.6 0.00 0.00 0.00 61 1017.0
20260503233748 12 123 0.0 1.6 0.00 0.00 0.00 60 1017.1
20260503233245 12 237 0.0 1.6 0.00 0.00 0.00 59 1017.1
20260503232744 12 278 0.0 1.6 0.00 0.00 0.00 59 1017.1
20260503232240 12 276 0.0 1.6 0.00 0.00 0.00 60 1017.2
20260503231739 12 276 0.0 1.6 0.00 0.00 0.00 60 1017.2
20260503231232 12 276 0.0 1.6 0.00 0.00 0.00 59 1017.3
20260503230734 13 278 0.0 0.0 0.00 0.00 0.00 59 1017.3
20260503230233 13 278 0.0 0.0 0.00 0.00 0.00 58 1017.3
20260503225735 13 278 0.0 0.0 0.00 0.00 0.00 57 1017.1
20260503225232 13 278 0.0 1.6 0.00 0.00 0.00 56 1017.1
20260503224734 14 278 0.0 1.6 0.00 0.00 0.00 54 1017.2
20260503224232 14 278 0.0 1.6 0.00 0.00 0.00 53 1017.1
20260503223730 14 278 0.0 1.6 0.00 0.00 0.00 52 1017.1
20260503223232 15 276 0.0 4.8 0.00 0.00 0.00 51 1017.1
20260503222730 15 330 1.6 6.4 0.00 0.00 0.00 50 1017.0
20260503222229 15 4 3.2 6.4 0.00 0.00 0.00 50 1016.9
20260503221729 15 283 3.2 6.4 0.00 0.00 0.00 50 1017.0
20260503221229 15 324 1.6 6.4 0.00 0.00 0.00 51 1016.9
20260503220731 15 320 3.2 6.4 0.00 0.00 0.00 51 1016.9
20260503220229 15 14 3.2 9.7 0.00 0.00 0.00 51 1016.9
20260503215730 15 313 6.4 9.7 0.00 0.00 0.00 50 1016.6
20260503215229 15 320 3.2 6.4 0.00 0.00 0.00 51 1016.7
20260503214730 15 300 3.2 6.4 0.00 0.00 0.00 51 1016.7
20260503214231 15 329 3.2 6.4 0.00 0.00 0.00 52 1016.7
20260503213729 15 300 1.6 4.8 0.00 0.00 0.00 51 1016.7
20260503213229 15 331 1.6 4.8 0.00 0.00 0.00 51 1016.7
20260503212729 16 14 0.0 4.8 0.00 0.00 0.00 52 1016.6
20260503212231 16 14 0.0 6.4 0.00 0.00 0.00 50 1016.5
20260503211726 16 0 3.2 6.4 0.00 0.00 0.00 49 1016.4
20260503211226 16 357 3.2 6.4 0.00 0.00 0.00 49 1016.4
20260503210729 16 16 3.2 8.0 0.00 0.00 0.00 49 1016.5
20260503210225 16 13 3.2 9.7 0.00 0.00 0.00 49 1016.4
20260503205723 16 6 4.8 9.7 0.00 0.00 0.00 48 1016.3
20260503205221 17 353 3.2 16.1 0.00 0.00 0.00 49 1016.2
20260503204719 17 54 4.8 16.1 0.00 0.00 0.00 48 1016.1
20260503204216 17 28 8.0 17.7 0.00 0.00 0.00 47 1016.1
20260503203714 17 334 11.3 20.9 0.00 0.00 0.00 47 1016.1
20260503203215 17 62 9.7 20.9 0.00 0.00 0.00 48 1016.0
20260503202714 17 326 11.3 17.7 0.00 0.00 0.00 49 1016.0
20260503202212 17 350 8.0 17.7 0.00 0.00 0.00 52 1016.0
20260503201714 17 323 3.2 14.5 0.00 0.00 0.00 55 1015.9
20260503201213 18 348 3.2 16.1 0.00 0.00 0.00 54 1015.8
20260503200711 18 351 8.0 17.7 0.00 0.00 0.00 54 1015.7
20260503200211 18 23 9.7 22.5 0.00 0.00 0.00 53 1015.6
20260503195711 18 32 12.9 22.5 0.00 0.00 0.00 52 1015.5
20260503195206 18 35 4.8 8.0 0.00 0.00 0.00 52 1015.4
20260503194706 18 326 3.2 8.0 0.00 0.00 0.00 51 1015.3
20260503194202 18 306 3.2 8.0 0.00 0.00 0.00 50 1015.2
20260503193701 18 355 3.2 11.3 0.00 0.00 0.00 49 1015.1
20260503193204 19 317 6.4 11.3 0.00 0.00 0.00 48 1015.0
20260503192703 19 344 6.4 14.5 0.00 0.00 0.00 48 1015.0
20260503192203 19 358 6.4 14.5 0.00 0.00 0.00 47 1014.8
20260503191702 19 338 1.6 8.0 0.00 0.00 0.00 47 1014.6
20260503191201 19 341 0.0 4.8 0.00 0.00 0.00 46 1014.6
20260503190702 20 320 3.2 8.0 0.00 0.00 0.00 45 1014.5
20260503190201 20 345 3.2 9.7 0.00 0.00 0.00 44 1014.4
20260503185702 20 20 3.2 9.7 0.00 0.00 0.00 44 1014.2
20260503185201 20 329 4.8 11.3 0.00 0.00 0.00 43 1014.3
20260503184703 20 344 6.4 16.1 0.00 0.00 0.00 42 1014.1
20260503184200 20 35 3.2 16.1 0.00 0.00 0.00 42 1014.0
20260503183703 20 55 3.2 9.7 0.00 0.00 0.00 42 1013.9
20260503183201 21 39 3.2 9.7 0.00 0.00 0.00 42 1013.9
20260503182703 21 55 3.2 9.7 0.00 0.00 0.00 42 1013.8
20260503182200 21 47 4.8 14.5 0.00 0.00 0.00 41 1013.8
20260503181658 21 25 6.4 11.3 0.00 0.00 0.00 40 1013.9
20260503181156 21 313 3.2 11.3 0.00 0.00 0.00 40 1014.0
20260503180658 21 312 3.2 11.3 0.00 0.00 0.00 39 1014.1
20260503180156 21 4 6.4 11.3 0.00 0.00 0.00 39 1014.0
20260503175656 22 23 6.4 11.3 0.00 0.00 0.00 38 1013.9
20260503175157 22 290 4.8 11.3 0.00 0.00 0.00 36 1014.0
20260503174656 22 313 6.4 9.7 0.00 0.00 0.00 34 1014.0
20260503174157 22 313 4.8 14.5 0.00 0.00 0.00 32 1013.8
20260503173656 22 296 8.0 14.5 0.00 0.00 0.00 29 1013.8
20260503173158 23 312 4.8 6.4 0.00 0.00 0.00 29 1013.8
20260503172656 23 309 1.6 6.4 0.00 0.00 0.00 29 1013.8
20260503172157 23 295 1.6 11.3 0.00 0.00 0.00 29 1013.8
20260503171656 23 302 6.4 11.3 0.00 0.00 0.00 28 1013.8
20260503171158 24 303 4.8 11.3 0.00 0.00 0.00 28 1013.6
20260503170657 24 238 0.0 1.6 0.00 0.00 0.00 31 1013.7
20260503170157 24 223 0.0 3.2 0.00 0.00 0.00 30 1013.7
20260503160155 25 45 1.6 8.0 0.00 0.00 0.00 28 1013.6
20260503150651 25 32 4.8 9.7 0.00 0.00 0.00 28 1014.1
20260503150147 24 283 1.6 16.1 0.00 0.00 0.00 29 1014.0
20260503140139 24 283 11.3 16.1 0.00 0.00 0.00 30 1014.4
20260503131130 24 292 4.8 11.3 0.00 0.00 0.00 28 1014.9
20260503130629 25 237 4.8 9.7 0.00 0.00 0.00 27 1014.9
20260503130131 25 282 4.8 9.7 0.00 0.00 0.00 27 1014.9
20260503120120 24 78 4.8 8.0 0.00 0.00 0.00 31 1015.5
20260503110608 23 141 1.6 8.0 0.00 0.00 0.00 35 1015.9
20260503110109 22 343 1.6 9.7 0.00 0.00 0.00 37 1016.0
20260503081555 20 271 3.2 6.4 0.00 0.00 0.00 42 1017.3
20260503081056 19 27 0.0 4.8 0.00 0.00 0.00 46 1017.3
20260503080555 19 295 0.0 4.8 0.00 0.00 0.00 47 1017.5
20260503072556 17 209 1.6 4.8 0.00 0.00 0.00 55 1017.4
20260503072055 16 265 1.6 6.4 0.00 0.00 0.00 56 1017.4
20260503071555 16 321 3.2 6.4 0.00 0.00 0.00 56 1017.4
20260503071054 16 271 1.6 6.4 0.00 0.00 0.00 57 1017.5
20260503070556 16 271 1.6 9.7 0.00 0.00 0.00 59 1017.5
20260503055045 10 157 1.6 3.2 0.00 0.00 0.00 77 1017.5
20260503054543 10 206 0.0 0.0 0.00 0.00 0.00 79 1017.6
20260503054046 9 207 0.0 0.0 0.00 0.00 0.00 80 1017.6
20260503053543 8 207 0.0 0.0 0.00 0.00 0.00 81 1017.6
20260503053042 8 207 0.0 1.6 0.00 0.00 0.00 81 1017.5
20260503052540 8 207 0.0 1.6 0.00 0.00 0.00 82 1017.6
20260503052041 7 207 0.0 0.0 0.00 0.00 0.00 82 1017.6
20260503051540 7 207 0.0 0.0 0.00 0.00 0.00 83 1017.6
20260503051038 7 207 0.0 0.0 0.00 0.00 0.00 84 1017.6
20260503050539 7 207 0.0 0.0 0.00 0.00 0.00 84 1017.7
20260503050038 6 207 0.0 0.0 0.00 0.00 0.00 85 1017.6
20260503045535 6 207 0.0 1.6 0.00 0.00 0.00 85 1017.7
20260503044536 6 140 0.0 0.0 0.00 0.00 0.00 86 1017.6
20260503044034 6 140 0.0 1.6 0.00 0.00 0.00 86 1017.6
20260503043535 6 140 0.0 1.6 0.00 0.00 0.00 86 1017.6
20260503043034 6 140 0.0 1.6 0.00 0.00 0.00 86 1017.5
20260503042531 6 166 0.0 1.6 0.00 0.00 0.00 86 1017.6
20260503042033 6 155 0.0 1.6 0.00 0.00 0.00 86 1017.6
20260503041532 6 155 0.0 1.6 0.00 0.00 0.00 86 1017.5
20260503041029 6 209 0.0 1.6 0.00 0.00 0.00 86 1017.5
20260503040530 6 209 0.0 0.0 0.00 0.00 0.00 86 1017.4
20260503040026 6 209 0.0 0.0 0.00 0.00 0.00 86 1017.4
20260503035523 6 209 0.0 1.6 0.00 0.00 0.00 86 1017.4
20260503035024 6 209 0.0 1.6 0.00 0.00 0.00 85 1017.4
20260503034524 6 209 0.0 1.6 0.00 0.00 0.00 85 1017.4
20260503034025 6 209 0.0 1.6 0.00 0.00 0.00 85 1017.3
20260503033522 6 220 0.0 1.6 0.00 0.00 0.00 85 1017.4
20260503033021 6 220 0.0 1.6 0.00 0.00 0.00 85 1017.3
20260503032523 6 220 0.0 0.0 0.00 0.00 0.00 85 1017.3
20260503032020 6 220 0.0 0.0 0.00 0.00 0.00 85 1017.4
20260503031518 6 220 0.0 1.6 0.00 0.00 0.00 85 1017.4
20260503031022 6 220 0.0 1.6 0.00 0.00 0.00 84 1017.4
20260503030518 6 220 0.0 1.6 0.00 0.00 0.00 84 1017.4
20260503030017 6 220 0.0 1.6 0.00 0.00 0.00 84 1017.4
20260503025519 6 220 0.0 0.0 0.00 0.00 0.00 84 1017.5
20260503025017 6 220 0.0 0.0 0.00 0.00 0.00 84 1017.5
20260503024515 6 220 0.0 1.6 0.00 0.00 0.00 83 1017.5
20260503024017 6 220 0.0 1.6 0.00 0.00 0.00 83 1017.6
20260503023515 6 220 0.0 1.6 0.00 0.00 0.00 83 1017.6
20260503023014 6 220 0.0 1.6 0.00 0.00 0.00 83 1017.5
20260503022514 6 152 0.0 0.0 0.00 0.00 0.00 84 1017.7
20260503022013 6 241 0.0 0.0 0.00 0.00 0.00 83 1017.8
20260503021511 6 227 0.0 0.0 0.00 0.00 0.00 83 1017.8
20260503021012 7 158 0.0 0.0 0.00 0.00 0.00 82 1017.7
20260503020509 7 158 0.0 0.0 0.00 0.00 0.00 82 1017.7
20260503020010 7 158 0.0 0.0 0.00 0.00 0.00 82 1017.7
20260503015511 7 158 0.0 0.0 0.00 0.00 0.00 82 1017.7
20260503015008 7 158 0.0 0.0 0.00 0.00 0.00 82 1017.7
20260503014509 7 158 0.0 0.0 0.00 0.00 0.00 82 1017.7
20260503014008 7 158 0.0 1.6 0.00 0.00 0.00 81 1017.7
20260503013506 7 158 0.0 1.6 0.00 0.00 0.00 81 1017.7
20260503013006 7 157 0.0 1.6 0.00 0.00 0.00 81 1017.8
20260503012507 7 202 0.0 0.0 0.00 0.00 0.00 81 1017.8
20260503012005 7 202 0.0 0.0 0.00 0.00 0.00 81 1017.8
20260503011505 7 234 0.0 0.0 0.00 0.00 0.00 81 1017.8
20260503011003 7 234 0.0 1.6 0.00 0.00 0.00 81 1017.8
20260503010501 7 234 0.0 1.6 0.00 0.00 0.00 80 1017.7
20260503010005 7 138 0.0 1.6 0.00 0.00 0.00 80 1017.9
20260503005503 7 138 0.0 1.6 0.00 0.00 0.00 80 1017.8
20260503005000 7 138 0.0 1.6 0.00 0.00 0.00 79 1017.8
20260503004458 8 138 0.0 1.6 0.00 0.00 0.00 79 1017.8
20260503004001 8 154 0.0 0.0 0.00 0.00 0.00 78 1017.9
20260503003457 8 154 0.0 0.0 0.00 0.00 0.00 78 1017.8
20260503002957 8 154 0.0 0.0 0.00 0.00 0.00 78 1017.9
20260503002453 8 154 0.0 0.0 0.00 0.00 0.00 77 1017.9
20260503001952 8 154 0.0 0.0 0.00 0.00 0.00 77 1017.9
20260503001455 8 154 0.0 0.0 0.00 0.00 0.00 77 1017.9
20260503000952 8 154 0.0 0.0 0.00 0.00 0.00 76 1018.1
20260503000451 8 154 0.0 0.0 0.00 0.00 0.00 76 1018.0
20260502235952 8 154 0.0 0.0 0.00 0.00 0.00 76 1018.2
20260502235449 8 154 0.0 0.0 0.00 0.00 0.00 76 1018.2
20260502234949 8 154 0.0 0.0 0.00 0.00 0.00 76 1018.1